DLH31P LIMC-EDDL

Flight info

Callsign DLH31P
Flight time N/A
Altitude 34000
Route AOSTA DCT ORSUD DCT MOLUS DCT GILIR DCT PENDU DCT IXILU DCT GIVOR DCT SORAL DCT IBERA/N0423F320 N853 DIK/N0421F310 N853 ARCKY T853 NVO T857 BIKMU BIKMU1A
Aircraft A320/M-SDE3FGHIRWY/LB1

Departure

Time 2026-05-05 13:28
Airport Milan Malpensa International Airport (LIMC)

Arrival

Time N/A
Airport Düsseldorf Airport (EDDL)
Time Latitude Longitude Altitude Speed Heading
2026-05-05 12:59 45.63014 8.71472 748 ft 0 kts 349°
2026-05-05 13:03 45.63015 8.71472 753 ft 6 kts 349°
2026-05-05 13:04 45.63014 8.71472 753 ft 0 kts 349°
2026-05-05 13:16 45.63007 8.71474 750 ft 4 kts 349°
2026-05-05 13:16 45.62980 8.71481 751 ft 4 kts 349°
2026-05-05 13:17 45.62959 8.71487 748 ft 4 kts 353°
2026-05-05 13:17 45.62935 8.71483 748 ft 4 kts 37°
2026-05-05 13:17 45.62928 8.71475 750 ft 3 kts 50°
2026-05-05 13:17 45.62936 8.71510 750 ft 4 kts 79°
2026-05-05 13:18 45.62939 8.71548 752 ft 4 kts 84°
2026-05-05 13:18 45.62942 8.71586 751 ft 4 kts 81°
2026-05-05 13:18 45.62944 8.71601 749 ft 0 kts 79°
2026-05-05 13:20 45.62945 8.71609 748 ft 5 kts 79°
2026-05-05 13:21 45.62955 8.71679 752 ft 7 kts 79°
2026-05-05 13:21 45.62964 8.71739 751 ft 5 kts 79°
2026-05-05 13:21 45.62979 8.71851 751 ft 17 kts 78°
2026-05-05 13:21 45.62982 8.72023 748 ft 18 kts 119°
2026-05-05 13:22 45.62879 8.72078 750 ft 15 kts 171°
2026-05-05 13:22 45.62780 8.72106 750 ft 14 kts 168°
2026-05-05 13:22 45.62692 8.72131 750 ft 12 kts 168°
2026-05-05 13:22 45.62614 8.72151 748 ft 11 kts 170°
2026-05-05 13:23 45.62522 8.72179 749 ft 18 kts 168°
2026-05-05 13:23 45.62404 8.72209 749 ft 16 kts 167°
2026-05-05 13:23 45.62298 8.72239 751 ft 15 kts 169°
2026-05-05 13:23 45.62223 8.72299 749 ft 12 kts 103°
2026-05-05 13:24 45.62237 8.72423 747 ft 14 kts 79°
2026-05-05 13:24 45.62258 8.72572 747 ft 15 kts 77°
2026-05-05 13:24 45.62274 8.72705 751 ft 12 kts 79°
2026-05-05 13:24 45.62290 8.72816 752 ft 16 kts 79°
2026-05-05 13:25 45.62298 8.72996 750 ft 15 kts 119°
2026-05-05 13:25 45.62209 8.73045 752 ft 14 kts 168°
2026-05-05 13:25 45.62057 8.73090 753 ft 28 kts 173°
2026-05-05 13:25 45.61880 8.73134 751 ft 26 kts 169°
2026-05-05 13:26 45.61730 8.73223 750 ft 22 kts 125°
2026-05-05 13:26 45.61642 8.73414 750 ft 24 kts 124°
2026-05-05 13:26 45.61589 8.73636 749 ft 26 kts 77°
2026-05-05 13:26 45.61656 8.73724 745 ft 11 kts 358°
2026-05-05 13:27 45.61726 8.73706 745 ft 5 kts 348°
2026-05-05 13:27 45.61746 8.73700 741 ft 6 kts 348°
2026-05-05 13:27 45.62005 8.73622 745 ft 74 kts 350°
2026-05-05 13:27 45.62715 8.73432 743 ft 132 kts 349°
2026-05-05 13:28 45.63770 8.73142 824 ft 170 kts 349°
2026-05-05 13:28 45.64927 8.73034 1503 ft 168 kts 13°
2026-05-05 13:28 45.65898 8.73927 2177 ft 172 kts 47°
2026-05-05 13:28 45.66772 8.75206 2583 ft 193 kts 47°
2026-05-05 13:29 45.67759 8.76659 3122 ft 206 kts 48°
2026-05-05 13:29 45.68774 8.78143 3840 ft 211 kts 48°
2026-05-05 13:29 45.69808 8.79646 4635 ft 212 kts 49°
2026-05-05 13:29 45.70500 8.80648 5144 ft 214 kts 48°
2026-05-05 13:30 45.71932 8.82734 6182 ft 218 kts 51°
2026-05-05 13:30 45.72631 8.84643 6579 ft 228 kts 91°
2026-05-05 13:30 45.72416 8.86474 7167 ft 227 kts 109°
2026-05-05 13:30 45.72097 8.89278 7840 ft 248 kts 85°
2026-05-05 13:31 45.72390 8.91766 8569 ft 256 kts 87°